EZY074 EGKK-EGHQ

Flight info

Callsign EZY074
Flight time 0h 46m
Altitude 28000
Route IMVUR N63 SAM L620 GIBSO DCT DAWLY DCT
Aircraft A20N/M-V/N

Departure

Time 2026-05-05 20:45
Airport London Gatwick Airport (EGKK)

Arrival

Time 2026-05-05 21:31
Airport Cornwall Airport Newquay (EGHQ)
Time Latitude Longitude Altitude Speed Heading
2026-05-05 20:10 51.15198 -0.18848 207 ft 0 kts 257°
2026-05-05 20:29 51.15199 -0.18841 194 ft 3 kts 257°
2026-05-05 20:29 51.15204 -0.18812 190 ft 3 kts 232°
2026-05-05 20:29 51.15218 -0.18790 224 ft 3 kts 211°
2026-05-05 20:30 51.15235 -0.18779 213 ft 3 kts 198°
2026-05-05 20:30 51.15249 -0.18773 214 ft 3 kts 191°
2026-05-05 20:30 51.15268 -0.18771 210 ft 3 kts 160°
2026-05-05 20:30 51.15279 -0.18781 216 ft 0 kts 140°
2026-05-05 20:34 51.15282 -0.18785 215 ft 0 kts 140°
2026-05-05 20:34 51.15282 -0.18784 215 ft 0 kts 140°
2026-05-05 20:34 51.15280 -0.18782 215 ft 0 kts 141°
2026-05-05 20:35 51.15277 -0.18778 207 ft 1 kts 144°
2026-05-05 20:35 51.15237 -0.18741 213 ft 10 kts 150°
2026-05-05 20:35 51.15176 -0.18692 213 ft 10 kts 167°
2026-05-05 20:35 51.15124 -0.18743 209 ft 9 kts 253°
2026-05-05 20:36 51.15112 -0.18842 216 ft 9 kts 255°
2026-05-05 20:36 51.15098 -0.18934 211 ft 8 kts 256°
2026-05-05 20:36 51.15086 -0.19020 217 ft 8 kts 257°
2026-05-05 20:36 51.15069 -0.19140 210 ft 15 kts 261°
2026-05-05 20:37 51.15042 -0.19351 216 ft 21 kts 257°
2026-05-05 20:37 51.15012 -0.19576 217 ft 21 kts 261°
2026-05-05 20:37 51.14972 -0.19796 218 ft 21 kts 252°
2026-05-05 20:37 51.14926 -0.20014 215 ft 20 kts 251°
2026-05-05 20:38 51.14890 -0.20193 208 ft 14 kts 252°
2026-05-05 20:38 51.14866 -0.20316 214 ft 9 kts 253°
2026-05-05 20:38 51.14856 -0.20373 215 ft 4 kts 253°
2026-05-05 20:38 51.14852 -0.20390 210 ft 0 kts 253°
2026-05-05 20:39 51.14853 -0.20393 209 ft 1 kts 270°
2026-05-05 20:39 51.14857 -0.20436 213 ft 15 kts 276°
2026-05-05 20:40 51.14857 -0.20617 207 ft 17 kts 257°
2026-05-05 20:40 51.14838 -0.20758 211 ft 6 kts 282°
2026-05-05 20:40 51.14837 -0.20785 207 ft 2 kts 268°
2026-05-05 20:40 51.14830 -0.20879 212 ft 20 kts 260°
2026-05-05 20:41 51.14802 -0.21089 208 ft 18 kts 255°
2026-05-05 20:41 51.14768 -0.21277 215 ft 17 kts 258°
2026-05-05 20:41 51.14727 -0.21396 216 ft 3 kts 186°
2026-05-05 20:41 51.14712 -0.21388 214 ft 2 kts 157°
2026-05-05 20:42 51.14698 -0.21373 213 ft 3 kts 144°
2026-05-05 20:42 51.14682 -0.21355 216 ft 3 kts 144°
2026-05-05 20:42 51.14584 -0.21301 207 ft 21 kts 159°
2026-05-05 20:42 51.14540 -0.21252 206 ft 1 kts 134°
2026-05-05 20:43 51.14516 -0.21177 213 ft 23 kts 98°
2026-05-05 20:43 51.14538 -0.20999 214 ft 6 kts 59°
2026-05-05 20:43 51.14543 -0.20983 213 ft 0 kts 75°
2026-05-05 20:44 51.14543 -0.20982 212 ft 1 kts 77°
2026-05-05 20:44 51.14581 -0.20662 209 ft 64 kts 72°
2026-05-05 20:44 51.14742 -0.19595 216 ft 137 kts 78°
2026-05-05 20:44 51.14953 -0.17796 457 ft 177 kts 81°
2026-05-05 20:45 51.15432 -0.13679 2050 ft 196 kts 77°
2026-05-05 20:45 51.15760 -0.11468 2670 ft 213 kts 76°
2026-05-05 20:45 51.16113 -0.09128 2955 ft 219 kts 73°
2026-05-05 20:46 51.16767 -0.06958 3022 ft 218 kts 50°
2026-05-05 20:46 51.17963 -0.05531 3377 ft 217 kts 22°
2026-05-05 20:46 51.19453 -0.05214 4072 ft 220 kts 357°
2026-05-05 20:46 51.20944 -0.05767 4822 ft 222 kts 337°
2026-05-05 20:47 51.22162 -0.07288 5517 ft 228 kts 309°
2026-05-05 20:47 51.22757 -0.09638 5912 ft 235 kts 278°
2026-05-05 20:47 51.22659 -0.12405 5999 ft 265 kts 264°
2026-05-05 20:47 51.22319 -0.15316 5995 ft 273 kts 262°
2026-05-05 20:48 51.21937 -0.18290 5994 ft 274 kts 262°
2026-05-05 20:48 51.21563 -0.21272 5780 ft 274 kts 262°
2026-05-05 20:48 51.21201 -0.24247 5515 ft 273 kts 262°
2026-05-05 20:48 51.20847 -0.27209 5258 ft 272 kts 262°
2026-05-05 20:49 51.20498 -0.30170 5004 ft 271 kts 262°
2026-05-05 20:49 51.20150 -0.33125 4763 ft 271 kts 262°
2026-05-05 20:49 51.19777 -0.36089 4954 ft 276 kts 261°
2026-05-05 20:49 51.19386 -0.39136 5569 ft 291 kts 261°
2026-05-05 20:50 51.18966 -0.42418 6172 ft 309 kts 261°
2026-05-05 20:50 51.18532 -0.45746 7376 ft 301 kts 261°
2026-05-05 20:50 51.18111 -0.48944 8789 ft 290 kts 261°
2026-05-05 20:50 51.17694 -0.52018 9976 ft 287 kts 259°
2026-05-05 20:51 51.17114 -0.55094 10765 ft 297 kts 254°
2026-05-05 20:51 51.16377 -0.58302 11156 ft 319 kts 251°
2026-05-05 20:51 51.15513 -0.61644 11817 ft 331 kts 249°
2026-05-05 20:51 51.14590 -0.65028 12669 ft 336 kts 248°
2026-05-05 20:52 51.13643 -0.68454 13575 ft 340 kts 248°
2026-05-05 20:52 51.12685 -0.71927 14332 ft 344 kts 248°
2026-05-05 20:52 51.11728 -0.75427 14923 ft 346 kts 248°
2026-05-05 20:52 51.10769 -0.78963 15484 ft 349 kts 248°
2026-05-05 20:53 51.09768 -0.82672 16092 ft 353 kts 248°
2026-05-05 20:53 51.08850 -0.86085 16656 ft 355 kts 248°
2026-05-05 20:53 51.07875 -0.89711 17256 ft 359 kts 248°
2026-05-05 20:53 51.06889 -0.93372 17872 ft 362 kts 248°
2026-05-05 20:54 51.05893 -0.97063 18468 ft 365 kts 248°
2026-05-05 20:54 51.04887 -1.00784 19013 ft 368 kts 248°
2026-05-05 20:54 51.03874 -1.04526 19573 ft 369 kts 248°
2026-05-05 20:54 51.02855 -1.08278 20146 ft 371 kts 248°
2026-05-05 20:55 51.01830 -1.12046 20720 ft 373 kts 248°
2026-05-05 20:55 51.00810 -1.15792 21317 ft 375 kts 248°
2026-05-05 20:55 50.99772 -1.19600 21922 ft 377 kts 249°
2026-05-05 20:55 50.98726 -1.23429 22539 ft 379 kts 249°
2026-05-05 20:56 50.97673 -1.27279 23184 ft 381 kts 249°
2026-05-05 20:56 50.96615 -1.31143 23764 ft 383 kts 249°
2026-05-05 20:56 50.95685 -1.35107 24314 ft 384 kts 254°
2026-05-05 20:56 50.94903 -1.39153 24861 ft 384 kts 255°
2026-05-05 20:57 50.94170 -1.43223 25427 ft 384 kts 256°
2026-05-05 20:57 50.93467 -1.47298 26003 ft 383 kts 256°
2026-05-05 20:57 50.92778 -1.51372 26591 ft 382 kts 256°
2026-05-05 20:57 50.92102 -1.55374 27186 ft 380 kts 256°
2026-05-05 20:58 50.91418 -1.59405 27737 ft 379 kts 255°
2026-05-05 20:58 50.90724 -1.63472 27947 ft 384 kts 255°
2026-05-05 20:58 50.90028 -1.67517 27970 ft 377 kts 255°
2026-05-05 20:58 50.89338 -1.71504 27968 ft 374 kts 255°
2026-05-05 20:59 50.88648 -1.75472 27967 ft 373 kts 255°
2026-05-05 20:59 50.87958 -1.79433 27966 ft 373 kts 255°
2026-05-05 20:59 50.87277 -1.83339 27969 ft 373 kts 255°
2026-05-05 20:59 50.86586 -1.87292 27967 ft 373 kts 255°
2026-05-05 21:00 50.85894 -1.91250 27967 ft 373 kts 255°
2026-05-05 21:00 50.85202 -1.95203 27966 ft 373 kts 255°
2026-05-05 21:00 50.84509 -1.99151 27968 ft 372 kts 255°
2026-05-05 21:00 50.83816 -2.03098 27968 ft 372 kts 255°
2026-05-05 21:01 50.83121 -2.07044 27964 ft 372 kts 255°
2026-05-05 21:01 50.82425 -2.10982 27967 ft 372 kts 255°
2026-05-05 21:01 50.81728 -2.14922 27965 ft 372 kts 255°
2026-05-05 21:01 50.81039 -2.18804 27962 ft 372 kts 255°
2026-05-05 21:02 50.80340 -2.22736 27964 ft 372 kts 255°
2026-05-05 21:02 50.79639 -2.26669 27961 ft 371 kts 255°
2026-05-05 21:02 50.78938 -2.30597 27966 ft 371 kts 255°
2026-05-05 21:02 50.78236 -2.34517 27973 ft 371 kts 255°
2026-05-05 21:03 50.77531 -2.38441 27974 ft 371 kts 255°
2026-05-05 21:03 50.76826 -2.42362 27975 ft 371 kts 255°
2026-05-05 21:03 50.76120 -2.46281 27979 ft 371 kts 255°
2026-05-05 21:03 50.75423 -2.50145 27977 ft 371 kts 255°
2026-05-05 21:04 50.74714 -2.54065 27974 ft 371 kts 255°
2026-05-05 21:04 50.74004 -2.57980 27974 ft 371 kts 255°
2026-05-05 21:04 50.73294 -2.61888 27977 ft 371 kts 255°
2026-05-05 21:04 50.72581 -2.65799 27975 ft 371 kts 255°
2026-05-05 21:05 50.71869 -2.69697 27975 ft 366 kts 255°
2026-05-05 21:05 50.71175 -2.73478 27970 ft 351 kts 255°
2026-05-05 21:05 50.70504 -2.77110 27844 ft 340 kts 254°
2026-05-05 21:05 50.69858 -2.80589 27682 ft 330 kts 254°
2026-05-05 21:06 50.69221 -2.84010 27524 ft 320 kts 254°
2026-05-05 21:06 50.68601 -2.87330 27317 ft 313 kts 254°
2026-05-05 21:06 50.67991 -2.90596 27000 ft 309 kts 255°
2026-05-05 21:06 50.67388 -2.93828 26647 ft 306 kts 255°
2026-05-05 21:07 50.66791 -2.97034 26306 ft 304 kts 255°
2026-05-05 21:07 50.66198 -3.00216 25949 ft 301 kts 255°
2026-05-05 21:07 50.65610 -3.03373 25614 ft 299 kts 255°
2026-05-05 21:07 50.65026 -3.06506 25279 ft 297 kts 255°
2026-05-05 21:08 50.64453 -3.09576 24955 ft 295 kts 255°
2026-05-05 21:08 50.63876 -3.12659 24629 ft 292 kts 255°
2026-05-05 21:08 50.63303 -3.15720 24303 ft 291 kts 255°
2026-05-05 21:08 50.62732 -3.18765 23982 ft 289 kts 255°
2026-05-05 21:09 50.62163 -3.21790 23650 ft 287 kts 255°
2026-05-05 21:09 50.61598 -3.24796 23299 ft 285 kts 255°
2026-05-05 21:09 50.61035 -3.27784 22900 ft 284 kts 255°
2026-05-05 21:09 50.60473 -3.30759 22508 ft 283 kts 255°
2026-05-05 21:10 50.59913 -3.33723 22121 ft 282 kts 255°
2026-05-05 21:10 50.59362 -3.36633 21764 ft 281 kts 255°
2026-05-05 21:10 50.58805 -3.39569 21393 ft 279 kts 255°
2026-05-05 21:10 50.58250 -3.42491 21030 ft 278 kts 255°
2026-05-05 21:11 50.57732 -3.45411 20675 ft 276 kts 261°
2026-05-05 21:11 50.57398 -3.48384 20318 ft 275 kts 263°
2026-05-05 21:11 50.57116 -3.51352 19975 ft 274 kts 263°
2026-05-05 21:11 50.56852 -3.54359 19405 ft 282 kts 264°
2026-05-05 21:12 50.56590 -3.57464 18801 ft 291 kts 264°
2026-05-05 21:12 50.56327 -3.60663 18190 ft 299 kts 265°
2026-05-05 21:12 50.56066 -3.63895 17523 ft 305 kts 266°
2026-05-05 21:12 50.56143 -3.67241 16861 ft 309 kts 280°
2026-05-05 21:13 50.56357 -3.70633 16203 ft 315 kts 275°
2026-05-05 21:13 50.56455 -3.74097 15597 ft 318 kts 273°
2026-05-05 21:13 50.56469 -3.77551 15274 ft 312 kts 271°
2026-05-05 21:13 50.56432 -3.80918 15030 ft 304 kts 270°
2026-05-05 21:14 50.56368 -3.84193 14786 ft 296 kts 269°
2026-05-05 21:14 50.56289 -3.87384 14545 ft 289 kts 269°
2026-05-05 21:14 50.56203 -3.90462 14307 ft 282 kts 269°
2026-05-05 21:14 50.56112 -3.93506 14070 ft 276 kts 269°
2026-05-05 21:15 50.56020 -3.96487 13836 ft 270 kts 269°
2026-05-05 21:15 50.55928 -3.99402 13574 ft 264 kts 269°
2026-05-05 21:15 50.55836 -4.02259 13306 ft 259 kts 269°
2026-05-05 21:15 50.55745 -4.05062 13044 ft 254 kts 269°
2026-05-05 21:16 50.55655 -4.07816 12779 ft 250 kts 269°
2026-05-05 21:16 50.55566 -4.10533 12390 ft 251 kts 269°
2026-05-05 21:16 50.55476 -4.13303 11872 ft 257 kts 270°
2026-05-05 21:16 50.55386 -4.16104 11369 ft 262 kts 270°
2026-05-05 21:17 50.55293 -4.18998 10867 ft 267 kts 270°
2026-05-05 21:17 50.55198 -4.21937 10381 ft 271 kts 270°
2026-05-05 21:17 50.55100 -4.24921 9895 ft 275 kts 270°
2026-05-05 21:17 50.55001 -4.27936 9363 ft 277 kts 270°
2026-05-05 21:18 50.54899 -4.30974 8835 ft 279 kts 270°
2026-05-05 21:18 50.54796 -4.34035 8317 ft 281 kts 270°
2026-05-05 21:18 50.54692 -4.37105 7884 ft 279 kts 270°
2026-05-05 21:18 50.54587 -4.40042 7708 ft 268 kts 270°
2026-05-05 21:19 50.54484 -4.42923 7486 ft 261 kts 270°
2026-05-05 21:19 50.54382 -4.45737 7232 ft 254 kts 270°
2026-05-05 21:19 50.54281 -4.48478 6987 ft 249 kts 270°
2026-05-05 21:19 50.54182 -4.51164 6750 ft 244 kts 270°
2026-05-05 21:20 50.54085 -4.53797 6503 ft 239 kts 269°
2026-05-05 21:20 50.53989 -4.56383 6248 ft 235 kts 269°
2026-05-05 21:20 50.53894 -4.58922 5989 ft 231 kts 269°
2026-05-05 21:20 50.53801 -4.61414 5753 ft 226 kts 269°
2026-05-05 21:21 50.53709 -4.63881 5421 ft 227 kts 269°
2026-05-05 21:21 50.53618 -4.66326 5088 ft 228 kts 269°
2026-05-05 21:21 50.53525 -4.68811 4775 ft 228 kts 269°
2026-05-05 21:21 50.53431 -4.71293 4473 ft 227 kts 269°
2026-05-05 21:22 50.53336 -4.73758 4188 ft 225 kts 270°
2026-05-05 21:22 50.53243 -4.76206 3925 ft 223 kts 270°
2026-05-05 21:22 50.53150 -4.78631 3663 ft 222 kts 270°
2026-05-05 21:22 50.53057 -4.81036 3403 ft 219 kts 270°
2026-05-05 21:23 50.52964 -4.83420 3125 ft 218 kts 270°
2026-05-05 21:23 50.52874 -4.85763 2838 ft 217 kts 271°
2026-05-05 21:23 50.52782 -4.88126 2591 ft 216 kts 271°
2026-05-05 21:23 50.52689 -4.90472 2322 ft 215 kts 271°
2026-05-05 21:24 50.52598 -4.92814 2065 ft 214 kts 271°
2026-05-05 21:24 50.52506 -4.95129 1999 ft 210 kts 271°
2026-05-05 21:24 50.52414 -4.97323 2024 ft 193 kts 272°
2026-05-05 21:24 50.52328 -4.99406 1997 ft 191 kts 272°
2026-05-05 21:25 50.52245 -5.01499 1990 ft 193 kts 272°
2026-05-05 21:25 50.52214 -5.03572 1992 ft 191 kts 277°
2026-05-05 21:25 50.52310 -5.05638 1993 ft 189 kts 281°
2026-05-05 21:25 50.52445 -5.07698 1987 ft 190 kts 282°
2026-05-05 21:26 50.52584 -5.09759 1989 ft 189 kts 282°
2026-05-05 21:26 50.52722 -5.11812 1998 ft 186 kts 282°
2026-05-05 21:26 50.52834 -5.13722 1986 ft 165 kts 282°
2026-05-05 21:26 50.52910 -5.15422 1998 ft 151 kts 276°
2026-05-05 21:27 50.52714 -5.17045 1993 ft 155 kts 251°
2026-05-05 21:27 50.51972 -5.18259 1993 ft 163 kts 205°
2026-05-05 21:27 50.50888 -5.18190 1958 ft 158 kts 144°
2026-05-05 21:27 50.50284 -5.16866 2010 ft 149 kts 106°
2026-05-05 21:28 50.49910 -5.15341 1995 ft 151 kts 107°
2026-05-05 21:28 50.49485 -5.13831 1993 ft 150 kts 114°
2026-05-05 21:28 50.48969 -5.12487 2003 ft 139 kts 116°
2026-05-05 21:28 50.48494 -5.11174 1843 ft 138 kts 115°
2026-05-05 21:29 50.48002 -5.09877 1645 ft 138 kts 115°
2026-05-05 21:29 50.47514 -5.08583 1450 ft 138 kts 115°
2026-05-05 21:29 50.47033 -5.07308 1254 ft 138 kts 115°
2026-05-05 21:29 50.46543 -5.06014 1056 ft 138 kts 115°
2026-05-05 21:30 50.46054 -5.04725 853 ft 137 kts 117°
2026-05-05 21:30 50.45568 -5.03445 673 ft 137 kts 117°
2026-05-05 21:30 50.45083 -5.02167 485 ft 136 kts 118°
2026-05-05 21:30 50.44615 -5.00954 369 ft 120 kts 116°
2026-05-05 21:31 50.44225 -4.99938 351 ft 100 kts 121°
2026-05-05 21:31 50.43893 -4.99088 376 ft 84 kts 120°
2026-05-05 21:31 50.43622 -4.98351 393 ft 73 kts 120°
2026-05-05 21:31 50.43432 -4.97832 407 ft 40 kts 134°
2026-05-05 21:32 50.43284 -4.97758 409 ft 10 kts 239°
2026-05-05 21:32 50.43282 -4.97776 409 ft 0 kts 271°
2026-05-05 21:32 50.43289 -4.97846 406 ft 14 kts 278°
2026-05-05 21:32 50.43289 -4.97891 408 ft 0 kts 290°
2026-05-05 21:33 50.43291 -4.97894 408 ft 3 kts 305°
2026-05-05 21:33 50.43305 -4.97881 402 ft 2 kts 89°
2026-05-05 21:33 50.43286 -4.97817 408 ft 1 kts 160°
2026-05-05 21:33 50.43285 -4.97817 408 ft 1 kts 165°
2026-05-05 21:34 50.43207 -4.97614 405 ft 31 kts 81°
2026-05-05 21:34 50.43269 -4.97346 373 ft 26 kts 41°
2026-05-05 21:34 50.43325 -4.97320 378 ft 1 kts 328°
2026-05-05 21:34 50.43319 -4.97315 377 ft 0 kts 332°
2026-05-05 21:35 50.43367 -4.97376 393 ft 19 kts 312°
2026-05-05 21:35 50.43518 -4.97655 407 ft 50 kts 321°
2026-05-05 21:35 50.43747 -4.98086 397 ft 49 kts 302°
2026-05-05 21:35 50.43885 -4.98438 388 ft 32 kts 301°
2026-05-05 21:36 50.43942 -4.98688 382 ft 14 kts 326°
2026-05-05 21:36 50.43998 -4.98712 380 ft 6 kts 286°
2026-05-05 21:36 50.43994 -4.98765 379 ft 5 kts 265°
2026-05-05 21:36 50.44012 -4.98815 378 ft 7 kts 302°
2026-05-05 21:37 50.44041 -4.98890 376 ft 10 kts 301°
2026-05-05 21:37 50.44080 -4.98992 374 ft 12 kts 301°
2026-05-05 21:37 50.44130 -4.99120 372 ft 15 kts 301°
2026-05-05 21:37 50.44187 -4.99271 366 ft 18 kts 299°
2026-05-05 21:38 50.44249 -4.99451 363 ft 20 kts 299°
2026-05-05 21:38 50.44322 -4.99651 358 ft 22 kts 300°
2026-05-05 21:38 50.44403 -4.99870 353 ft 24 kts 300°
2026-05-05 21:38 50.44493 -5.00105 353 ft 26 kts 301°
2026-05-05 21:39 50.44576 -5.00187 349 ft 9 kts 271°
2026-05-05 21:39 50.44573 -5.00285 339 ft 10 kts 284°
2026-05-05 21:39 50.44616 -5.00376 337 ft 12 kts 336°
2026-05-05 21:39 50.44687 -5.00449 334 ft 13 kts 300°
2026-05-05 21:40 50.44696 -5.00476 333 ft 0 kts 298°